ヒル彗星

P/2009 Q1 ( Hill )

English version
Home page
Updated on June 11, 2016

---------------------------------------------------------------------

・ プロフィール

発見日 2009年8月27日
発見光度 17.9等
発見者 R. E. Hill (Catalina Sky Survey)

・ 写真集

・ 軌道要素

Epoch 2009 June 18.0 TT = JDT 2455000.5
T 2009 July 4.13203 TT                                  MPCW
q   2.7899033            (2000.0)            P               Q
n   0.07547173     Peri.  157.92850     +0.88431094     +0.46619161
a   5.5455742      Node   174.08869     -0.45692791     +0.87542302
e   0.4969135      Incl.   14.43974     -0.09597414     +0.12767112
P  13.1
From 112 observations 2009 Aug. 16-Nov. 11, mean residual 0".6.

・ 光度変化

        m1 = 12.5 + 5 logΔ + 10.0 log r

---------------------------------------------------------------------

軌道要素はM.P.E.C. 2016-D32に掲載されたものです。
光度グラフはComet for Windowsで作成したものです。

---------------------------------------------------------------------

Copyright(C) Seiichi Yoshida (comet@aerith.net). All rights reserved.